#timestamp,LO_Frequency,Hit,StdDev 
1610449215.7,286046992.2,P
1610449235.5,286046994.2,N
1610449255.3,286046994.1,N
1610449275.2,286046991.0,N
1610449295.0,286046984.1,Y
1610449295.9,286046984.1,P
1610449315.8,286046989.2,P
1610449335.6,286046987.4,P
1610449355.4,286046992.1,Y
1610449375.3,286047001.9,P
1610449395.1,286047011.5,N
1610449415.9,286047009.5,N
1610449435.7,286047003.7,N
1610449455.5,286047006.7,N
1610449475.4,286047002.4,N
1610449495.2,286047000.3,N
1610449515.1,286047000.6,N
1610449516.0,286047000.6,N
1610449535.8,286047003.9,N
1610449555.6,286047003.9,N
1610449575.5,286047006.7,N
1610449595.3,286047003.5,N
1610449615.1,286047000.7,N
1610449635.9,286046993.2,N
1610449655.7,286046988.6,N
1610449675.6,286046986.2,N
1610449695.4,286046986.8,N
1610449715.2,286046988.4,N
1610449735.1,286046985.2,N
1610449736.0,286046985.2,N
1610449755.8,286046989.1,N
1610449775.6,286046996.3,N
1610449795.5,286046997.0,N
1610449815.3,286046988.8,N
1610449835.2,286046990.1,N
1610449855.9,286046995.7,N
1610449875.7,286046995.2,N
1610449895.6,286047001.7,N
1610449915.4,286047000.8,N
1610449935.2,286046997.0,N
1610449955.1,286046996.4,N
1610449956.0,286046996.4,N
1610449975.8,286046991.7,N
1610449995.7,286046994.2,N
1610450015.5,286046990.8,N
1610450035.3,286046985.4,N
1610450055.2,286046987.0,N
1610450075.0,286046991.2,N
1610450075.9,286046991.2,N
1610450095.8,286047001.2,N
1610450115.6,286046998.4,N
1610450135.4,286046997.1,N
1610450155.3,286046996.9,N
1610450175.1,286046993.3,N
1610450195.8,286046987.7,N
1610450215.7,286046985.0,Y
1610450235.5,286046987.2,P
1610450255.4,286046983.5,P
1610450275.2,286046979.3,P
1610450295.0,286046986.4,N
1610450295.9,286046986.4,Y
1610450315.8,286047009.2,P
1610450335.6,286047013.0,N
1610450355.5,286047023.8,N
1610450375.3,286047026.2,N
1610450395.1,286047024.5,N
1610450415.9,286047022.0,N
1610450435.8,286047015.5,N
1610450455.6,286047018.7,N
1610450475.4,286047021.0,N
1610450495.3,286047027.9,N
1610450515.1,286047031.0,N
1610450535.8,286047027.5,N
1610450555.7,286047020.5,N
1610450575.5,286047025.2,N
1610450595.4,286047027.1,N
1610450615.2,286047028.6,N
1610450635.0,286047027.6,N
1610450635.9,286047027.6,N
1610450655.8,286047037.5,Y
1610450675.6,286046993.8,P
1610450695.5,286046990.5,N
1610450715.3,286046987.6,N
1610450735.1,286046987.2,N
1610450755.9,286046995.7,N
1610450775.7,286047002.3,N
1610450795.6,286046995.8,N
1610450815.4,286046992.9,N
1610450835.2,286046991.1,N
1610450855.1,286046984.4,N
1610450856.0,286046984.4,N
1610450875.8,286046979.0,N
1610450895.6,286046981.6,N
1610450915.5,286046976.4,N
1610450935.3,286046974.4,N
1610450955.2,286046980.5,N
1610450975.9,286046989.7,N
1610450995.7,286046991.2,N
1610451015.6,286046990.8,N
1610451035.4,286046989.0,N
1610451055.3,286046992.6,N
1610451075.1,286046994.4,N
1610451076.0,286046994.4,N
1610451095.8,286046993.9,N
1610451115.7,286046996.9,N
1610451135.5,286047002.6,N
1610451155.4,286047006.8,N
1610451175.2,286047016.5,N
1610451195.0,286047028.2,N
1610451195.9,286047028.2,N
1610451215.8,286047019.4,N
1610451235.6,286047008.9,N
1610451255.4,286047009.1,N
1610451275.3,286047009.7,N
1610451295.1,286047010.6,N
1610451315.9,286047009.4,N
1610451335.7,286047013.7,N
1610451355.5,286047015.9,N
1610451375.4,286047026.2,N
1610451395.2,286047026.3,N
1610451415.1,286047016.7,N
1610451416.0,286047016.7,N
1610451435.8,286047014.6,N
1610451455.6,286046997.8,N
1610451475.5,286046993.2,N
1610451495.3,286046985.8,N
1610451515.2,286046990.2,N
1610451535.9,286046991.9,N
1610451555.7,286046988.8,N
1610451575.6,286046986.7,N
1610451595.4,286046984.3,N
1610451615.2,286046980.1,N
1610451635.1,286046974.1,N
1610451636.0,286046974.1,N
1610451655.8,286046967.9,N
1610451675.7,286046970.8,N
1610451695.5,286046976.8,N
1610451715.3,286046971.7,N
1610451735.2,286046967.9,N
1610451755.0,286046975.2,N
1610451755.9,286046975.2,N
1610451775.8,286046986.2,N
1610451795.6,286046984.1,N
1610451815.4,286046988.1,N
1610451835.3,286046987.1,N
1610451855.1,286046992.3,N
1610451875.8,286046998.5,N
1610451895.7,286046998.9,N
1610451915.5,286046996.3,N
1610451935.4,286046996.6,N
1610451955.2,286047004.9,N
1610451975.0,286047003.0,N
1610451975.9,286047003.0,N
1610451995.8,286047002.8,N
1610452015.6,286047004.4,N
1610452035.4,286047004.3,N
1610452055.3,286046995.6,N
1610452075.1,286046988.8,N
1610452095.9,286046993.4,N
1610452115.7,286046993.7,N
1610452135.5,286046993.6,N
1610452155.4,286046992.0,N
1610452175.2,286046991.5,N
1610452195.0,286046986.3,N
1610452196.0,286046987.4,N
1610452215.8,286046985.2,N
1610452235.6,286046989.0,N
1610452255.5,286046986.1,N
1610452275.3,286046979.5,N
1610452295.1,286046974.5,Y
1610452315.9,286046986.4,P
1610452335.7,286046978.9,P
1610452355.6,286046979.8,P
1610452375.4,286046977.7,Y
1610452395.2,286046999.0,P
1610452415.1,286047004.0,N
1610452416.0,286047004.0,N
1610452435.8,286047004.1,N
1610452455.6,286047002.2,N
1610452475.5,286047000.1,N
1610452495.3,286047003.8,N
1610452515.2,286046999.5,N
1610452535.9,286046994.2,N
1610452555.7,286046988.7,N
1610452575.6,286046987.4,N
1610452595.4,286046983.0,N
1610452615.2,286046981.8,N
1610452635.1,286046983.0,N
1610452636.0,286046983.0,N
1610452655.8,286046979.8,N
1610452675.7,286046973.6,N
1610452695.5,286046964.0,Y
1610452715.3,286046975.9,P
1610452735.2,286046975.1,P
1610452755.0,286046972.9,P
1610452755.9,286046972.9,Y
1610452775.8,286046997.9,P
1610452795.6,286046999.6,N
